KD4PYR Weather Reports


Display with metric or nautical units.
time (UTC)temp
F
wind
direction
speed
MPH
gust
MPH
rain 1hr
in
rain 24hr
in
rain mn
in
humidity
%
barometer
mb
20260903162841 90 180 3.0 9.0 0.00 0.00 0.00 59 1018.5
20260903161834 90 140 3.0 9.0 0.00 0.00 0.00 60 1018.6
20260903160823 90 163 3.0 9.0 0.00 0.00 0.00 61 1018.6
20260903155856 89 274 3.0 10.0 0.00 0.00 0.00 61 1018.6
20260903154838 89 156 3.0 5.0 0.00 0.00 0.00 60 1018.7
20260903153838 89 24 2.0 5.0 0.00 0.00 0.00 62 1018.6
20260903152829 88 159 1.0 6.0 0.00 0.00 0.00 63 1018.7
20260903151848 88 161 2.0 6.0 0.00 0.00 0.00 63 1018.7
20260903150821 87 148 1.0 8.0 0.00 0.00 0.00 65 1018.6
20260903145825 87 177 0.0 5.0 0.00 0.00 0.00 65 1018.6
20260903144845 86 171 1.0 5.0 0.00 0.00 0.00 69 1018.5
20260903143842 85 167 1.0 5.0 0.00 0.00 0.00 70 1018.5
20260903142900 85 196 1.0 4.0 0.00 0.00 0.00 70 1018.5
20260903141831 84 182 0.0 3.0 0.00 0.00 0.00 72 1018.6
20260903140825 83 170 0.0 3.0 0.00 0.00 0.00 74 1018.6
20260903135829 82 167 1.0 3.0 0.00 0.00 0.00 75 1018.7
20260903134831 81 167 0.0 3.0 0.00 0.00 0.00 76 1018.7
20260903133850 81 167 0.0 2.0 0.00 0.00 0.00 76 1018.8
20260903132816 80 167 0.0 3.0 0.00 0.00 0.00 77 1018.9
20260903131834 79 167 2.0 4.0 0.00 0.00 0.00 77 1019.0
20260903130826 79 167 1.0 4.0 0.00 0.00 0.00 78 1019.1
20260903125831 78 167 1.0 2.0 0.00 0.00 0.00 78 1019.1
20260903124817 77 167 0.0 2.0 0.00 0.00 0.00 78 1019.1
20260903123853 77 167 1.0 3.0 0.00 0.00 0.00 78 1019.1
20260903122822 77 167 1.0 3.0 0.00 0.00 0.00 79 1019.1
20260903121840 76 167 1.0 2.0 0.00 0.00 0.00 79 1019.1
20260903120831 76 167 0.0 2.0 0.00 0.00 0.00 80 1019.0
20260903115834 75 167 0.0 0.0 0.00 0.00 0.00 80 1019.0
20260903114838 75 167 0.0 2.0 0.00 0.00 0.00 80 1018.9
20260903113829 75 167 1.0 2.0 0.00 0.00 0.00 80 1018.9
20260903112820 74 167 0.0 1.0 0.00 0.00 0.00 80 1018.8
20260903111838 75 167 0.0 1.0 0.00 0.00 0.00 80 1018.8
20260903110829 75 167 0.0 2.0 0.00 0.00 0.00 80 1018.6
20260903105834 75 167 0.0 2.0 0.00 0.00 0.00 80 1018.5
20260903104817 75 167 0.0 2.0 0.00 0.00 0.00 80 1018.4
20260903103835 75 167 0.0 5.0 0.00 0.00 0.00 79 1018.3
20260903102825 75 165 1.0 4.0 0.00 0.00 0.00 79 1018.3
20260903101816 75 178 1.0 3.0 0.00 0.00 0.00 79 1018.3
20260903100855 75 167 0.0 0.0 0.00 0.00 0.00 80 1018.4
20260903095816 75 167 0.0 0.0 0.00 0.00 0.00 80 1018.3
20260903094819 75 167 0.0 0.0 0.00 0.00 0.00 80 1018.3
20260903093839 75 167 0.0 0.0 0.00 0.00 0.00 80 1018.3
20260903092831 75 167 0.0 3.0 0.00 0.00 0.00 80 1018.3
20260903091824 75 167 0.0 2.0 0.00 0.00 0.00 80 1018.3
20260903090817 75 167 0.0 1.0 0.00 0.00 0.00 80 1018.2
20260903085821 75 167 0.0 1.0 0.00 0.00 0.00 80 1018.2
20260903084825 76 167 0.0 1.0 0.00 0.00 0.00 80 1018.2
20260903083817 75 167 0.0 2.0 0.00 0.00 0.00 80 1018.1
20260903082836 75 167 0.0 0.0 0.00 0.00 0.00 80 1018.1
20260903081826 75 167 0.0 0.0 0.00 0.00 0.00 80 1018.2
20260903080816 76 167 0.0 0.0 0.00 0.00 0.00 80 1018.2
20260903075820 76 167 0.0 0.0 0.00 0.00 0.00 80 1018.1
20260903074823 76 167 0.0 1.0 0.00 0.00 0.00 80 1018.1
20260903073815 76 167 0.0 1.0 0.00 0.00 0.00 80 1018.0
20260903072833 76 167 0.0 0.0 0.00 0.00 0.00 80 1018.0
20260903071826 76 167 0.0 0.0 0.00 0.00 0.00 79 1017.9
20260903070819 77 167 0.0 0.0 0.00 0.00 0.00 79 1017.9
20260903065822 77 167 0.0 1.0 0.00 0.00 0.00 79 1017.8
20260903064828 77 167 0.0 1.0 0.00 0.00 0.00 78 1017.8
20260903063821 77 167 0.0 1.0 0.00 0.00 0.00 78 1017.8
20260903062841 77 167 0.0 3.0 0.00 0.00 0.00 78 1017.9
20260903061834 77 168 1.0 3.0 0.00 0.00 0.00 78 1017.9
20260903060826 77 168 0.0 0.0 0.00 0.00 0.00 79 1017.8
20260903055832 77 168 0.0 0.0 0.00 0.00 0.00 79 1017.9
20260903054817 78 168 0.0 1.0 0.00 0.00 0.00 78 1017.8
20260903053835 78 168 0.0 2.0 0.00 0.00 0.00 78 1017.9
20260903052827 78 168 0.0 1.0 0.00 0.00 0.00 79 1017.8
20260903051846 78 168 0.0 1.0 0.00 0.00 0.00 78 1017.9
20260903050817 79 168 0.0 1.0 0.00 0.00 0.00 78 1017.8
20260903045820 79 168 0.0 1.0 0.00 0.00 0.00 78 1017.7
20260903044822 79 168 0.0 2.0 0.00 0.00 0.00 78 1017.6
20260903043819 79 168 0.0 2.0 0.00 0.00 0.00 78 1017.7
20260903042837 79 168 0.0 1.0 0.00 0.00 0.00 78 1017.7
20260903041830 80 169 0.0 2.0 0.00 0.00 0.00 77 1017.6
20260903040848 80 169 0.0 3.0 0.00 0.00 0.00 77 1017.8
20260903035830 80 169 0.0 3.0 0.00 0.00 0.00 77 1017.7
20260903034833 79 169 1.0 2.0 0.00 0.00 0.00 77 1017.7
20260903033826 80 171 0.0 1.0 0.00 0.00 0.00 78 1017.8
20260903032817 80 171 0.0 1.0 0.00 0.00 0.00 77 1017.9
20260903031837 80 171 0.0 2.0 0.00 0.00 0.00 77 1017.9
20260903030829 80 171 0.0 1.0 0.00 0.00 0.00 78 1017.9
20260903025834 80 171 0.0 2.0 0.00 0.00 0.00 77 1017.9
20260903024857 80 171 0.0 1.0 0.00 0.00 0.00 78 1018.0
20260903023829 81 171 0.0 1.0 0.00 0.00 0.00 77 1018.0
20260903022821 81 171 0.0 1.0 0.00 0.00 0.00 77 1018.1
20260903021858 81 171 0.0 1.0 0.00 0.00 0.00 77 1017.9
20260903020829 81 171 0.0 1.0 0.00 0.00 0.00 76 1018.1
20260903015832 82 171 0.0 1.0 0.00 0.00 0.00 75 1018.1
20260903014837 82 171 0.0 1.0 0.00 0.00 0.00 75 1018.1
20260903013829 82 171 0.0 2.0 0.00 0.00 0.00 74 1017.9
20260903012823 82 171 0.0 1.0 0.00 0.00 0.00 74 1017.9
20260903011900 83 171 0.0 1.0 0.00 0.00 0.00 73 1017.8
20260903010830 83 171 0.0 1.0 0.00 0.00 0.00 73 1017.6
20260903005817 83 171 0.0 0.0 0.00 0.00 0.00 72 1017.5
20260903004821 84 171 0.0 1.0 0.00 0.00 0.00 70 1017.4
20260903003839 84 171 0.0 2.0 0.00 0.00 0.00 71 1017.3
20260903002832 85 171 0.0 1.0 0.00 0.00 0.00 71 1017.3
20260903001825 85 171 0.0 1.0 0.00 0.00 0.00 68 1017.4
20260903000817 86 171 0.0 1.0 0.00 0.00 0.00 68 1017.4
20260902235840 87 171 0.0 1.0 0.00 0.00 0.00 66 1017.5
20260902234822 87 171 0.0 3.0 0.00 0.00 0.00 65 1017.5
20260902233840 88 171 0.0 2.0 0.00 0.00 0.00 63 1017.5
20260902232835 89 173 0.0 4.0 0.00 0.00 0.00 62 1017.5
20260902231828 89 166 1.0 5.0 0.00 0.00 0.00 61 1017.5
20260902230820 89 139 0.0 5.0 0.00 0.00 0.00 60 1017.6
20260902225824 90 155 1.0 3.0 0.00 0.00 0.00 60 1017.6
20260902224826 90 155 2.0 5.0 0.00 0.00 0.00 59 1017.6
20260902223846 90 155 3.0 5.0 0.00 0.00 0.00 58 1017.6
20260902222821 91 179 3.0 6.0 0.00 0.00 0.00 58 1017.8
20260902221840 91 144 3.0 6.0 0.00 0.00 0.00 57 1017.8
20260902220832 91 180 2.0 7.0 0.00 0.00 0.00 57 1017.7
20260902215833 91 190 3.0 7.0 0.00 0.00 0.00 57 1017.7
20260902214818 91 171 3.0 7.0 0.00 0.00 0.00 56 1017.7
20260902213855 92 171 2.0 7.0 0.00 0.00 0.00 56 1017.8
20260902212851 92 163 1.0 5.0 0.00 0.00 0.00 56 1017.8
20260902211823 92 235 2.0 14.0 0.00 0.00 0.00 55 1017.8
20260902210814 92 160 3.0 7.0 0.00 0.00 0.00 55 1017.8
20260902205837 93 86 1.0 5.0 0.00 0.00 0.00 55 1017.9
20260902204819 94 163 4.0 7.0 0.00 0.00 0.00 53 1018.0
20260902203837 93 166 2.0 9.0 0.00 0.00 0.00 53 1018.1
20260902202856 93 180 5.0 9.0 0.00 0.00 0.00 54 1018.1
20260902201826 93 172 3.0 6.0 0.00 0.00 0.00 54 1018.2
20260902200818 94 159 3.0 8.0 0.00 0.00 0.00 53 1018.2
20260902195823 94 148 4.0 8.0 0.00 0.00 0.00 53 1018.2
20260902194826 94 142 2.0 6.0 0.00 0.00 0.00 51 1018.4
20260902193818 94 139 2.0 5.0 0.00 0.00 0.00 52 1018.5
20260902192855 94 317 3.0 8.0 0.00 0.00 0.00 52 1018.7
20260902191827 94 319 2.0 5.0 0.00 0.00 0.00 53 1018.8
20260902190818 92 138 1.0 3.0 0.00 0.00 0.00 56 1018.8
20260902185843 91 144 0.0 5.0 0.00 0.00 0.00 56 1019.0
20260902184825 92 321 2.0 5.0 0.00 0.00 0.00 56 1019.1
20260902183818 92 148 2.0 4.0 0.00 0.00 0.00 56 1019.1
20260902182836 92 313 3.0 9.0 0.00 0.00 0.00 57 1019.1
20260902181828 93 282 4.0 9.0 0.00 0.00 0.00 56 1019.2
20260902180819 92 186 4.0 10.0 0.00 0.00 0.00 56 1019.2
20260902175819 92 166 2.0 6.0 0.00 0.00 0.00 57 1019.3
20260902174823 92 268 1.0 8.0 0.00 0.00 0.00 60 1019.3
20260902173815 91 179 1.0 9.0 0.00 0.00 0.00 61 1019.4
20260902172833 92 192 3.0 8.0 0.00 0.00 0.00 61 1019.5
20260902171853 91 307 2.0 8.0 0.00 0.00 0.00 62 1019.7
20260902170821 91 166 2.0 6.0 0.00 0.00 0.00 62 1019.8
20260902165823 90 182 4.0 8.0 0.00 0.00 0.00 61 1019.7
20260902164853 91 166 2.0 8.0 0.00 0.00 0.00 62 1019.8
20260902163825 91 182 3.0 7.0 0.00 0.00 0.00 62 1020.0